Find Local Weather

World > North America > United States > Wisconsin

Green Lake, Wisconsin Regional Weather

Lat: 43.84N, Lon: 88.96W
Wx Zone: WIZ047
Warning FLW WEATHER ALERT - WINTER WEATHER ADVISORY (More Info. Click Here) Warning
Feedback
Expires:201812121000;;670655
ASUS43 KMKX 120911
RWRWI 

WISCONSIN REGIONAL WEATHER ROUNDUP
NATIONAL WEATHER SERVICE MILWAUKEE/SULLIVAN WI
300 AM CST WED DEC 12 2018

NOTE: "FAIR" INDICATES FEW OR NO CLOUDS BELOW 12,000 FEET WITH NO
SIGNIFICANT WEATHER AND/OR OBSTRUCTIONS TO VISIBILITY.


WIZ029-030-035-036-043>047-121000-
CENTRAL WISCONSIN
  
CITY           SKY/WX    TMP DP  RH WIND       PRES   REMARKS
WAUSAU         CLOUDY    26  23  88 E12       29.79F FOG     WCI  16  
MOSINEE        CLOUDY    27  27 100 E10       29.80F FOG     WCI  17  
MARSHFIELD     CLOUDY    26  24  92 E15G23    29.75F WCI  14          
STEVENS POINT  CLOUDY    26  25  99 E10       29.81F WCI  15          
WAUPACA        FAIR      29  26  86 E6        29.84F WCI  23          
WAUTOMA        CLOUDY    27  25  92 E8        29.81F WCI  19          
WISC RAPIDS    CLOUDY    28  22  78 E9        29.79F HAZE    WCI  19  
CAMP DOUGLAS   CLOUDY    27  27  99 E10       29.74F FOG     WCI  17  
$$
 

SKY/WX - Weather  TMP - Temperature  DP - Dew Point  RH - Relative Humidity
WIND - Wind Direction/Speed PRES - Barometric Pressure